Location: Newark
(48.6676°N, 6.1917°E)
Time: 02:45:52
(UTC+00:00)

N. Korean satellite - Pass Details

Date: 10 December 2019
Orbit: 454 x 507 km, 97.2° (Epoch: 23 January)

Event Time Altitude Azimuth Distance (km) Brightness Sun altitude
Rises 04:59:22 0° 20° (NNE) 2,558 10.4 -21.5°
Reaches altitude 10° 05:01:37 10° 31° (NNE) 1,662 9.5 -21.2°
Maximum altitude 05:04:52 32° 96° (E) 831 8.4 -20.7°
Drops below altitude 10° 05:08:02 10° 162° (SSE) 1,621 9.6 -20.1°
Sets 05:10:11 0° 172° (S) 2,483 10.4 -19.8°
